�������l�o���
Date,Time,MP-1(��Sv/h),MP-2(��Sv/h),MP-3(��Sv/h),MP-4(��Sv/h),MP-5(��Sv/h),MP-6(��Sv/h),MP-7(��Sv/h),MP-8(��Sv/h),����,����(m/s),���J
2019/04/18,00:00,0.767,1.123,0.773,1.426,1.042,0.439,0.772,0.734,��,5.0,��
2019/04/18,00:10,0.769,1.123,0.772,1.423,1.043,0.441,0.774,0.734,��,4.2,��
2019/04/18,00:20,0.767,1.122,0.772,1.425,1.043,0.441,0.776,0.732,��,4.5,��
2019/04/18,00:30,0.768,1.123,0.772,1.426,1.041,0.440,0.775,0.732,��,4.7,��
2019/04/18,00:40,0.767,1.123,0.772,1.425,1.042,0.439,0.774,0.733,��,6.2,��
2019/04/18,00:50,0.767,1.122,0.771,1.425,1.042,0.438,0.775,0.733,��,6.8,��
2019/04/18,01:00,0.766,1.123,0.772,1.426,1.041,0.440,0.776,0.733,��쐼,6.5,��
2019/04/18,01:10,0.767,1.120,0.771,1.425,1.042,0.440,0.774,0.732,��,7.0,��
2019/04/18,01:20,0.767,1.120,0.771,1.424,1.043,0.438,0.775,0.733,��,6.3,��
2019/04/18,01:30,0.767,1.118,0.773,1.426,1.043,0.437,0.775,0.733,��쐼,5.5,��
2019/04/18,01:40,0.768,1.122,0.770,1.424,1.041,0.439,0.775,0.732,��쐼,5.5,��
2019/04/18,01:50,0.767,1.123,0.770,1.424,1.042,0.441,0.774,0.733,��쐼,5.8,��
2019/04/18,02:00,0.768,1.123,0.772,1.426,1.043,0.440,0.775,0.733,��쐼,6.2,��
2019/04/18,02:10,0.768,1.123,0.772,1.426,1.043,0.440,0.774,0.732,��쐼,6.0,��
2019/04/18,02:20,0.766,1.122,0.773,1.428,1.044,0.439,0.774,0.733,��쐼,5.6,��
2019/04/18,02:30,0.767,1.123,0.771,1.424,1.044,0.440,0.774,0.733,��쐼,5.4,��
2019/04/18,02:40,0.768,1.122,0.771,1.426,1.043,0.440,0.774,0.733,��쐼,4.3,��
2019/04/18,02:50,0.770,1.121,0.771,1.425,1.043,0.439,0.774,0.732,��쐼,3.6,��
2019/04/18,03:00,0.766,1.122,0.772,1.424,1.042,0.438,0.774,0.733,��쐼,3.6,��
2019/04/18,03:10,0.766,1.121,0.771,1.427,1.041,0.439,0.775,0.733,��쐼,3.6,��
2019/04/18,03:20,0.768,1.123,0.774,1.424,1.042,0.440,0.775,0.734,��쐼,3.5,��
2019/04/18,03:30,0.769,1.121,0.771,1.424,1.041,0.439,0.774,0.732,��쐼,3.0,��
2019/04/18,03:40,0.767,1.122,0.771,1.425,1.043,0.440,0.774,0.733,��쐼,2.2,��
2019/04/18,03:50,0.765,1.121,0.772,1.427,1.041,0.439,0.777,0.733,�쐼,1.1,��
2019/04/18,04:00,0.769,1.120,0.772,1.426,1.042,0.438,0.774,0.732,�k��,0.6,��
2019/04/18,04:10,0.768,1.121,0.771,1.426,1.043,0.439,0.774,0.734,-,CALM,��
2019/04/18,04:20,0.767,1.122,0.772,1.425,1.043,0.439,0.777,0.733,-,CALM,��
2019/04/18,04:30,0.768,1.122,0.773,1.423,1.041,0.438,0.775,0.733,-,CALM,��
2019/04/18,04:40,0.768,1.121,0.773,1.427,1.044,0.440,0.773,0.733,-,CALM,��
2019/04/18,04:50,0.767,1.122,0.773,1.426,1.040,0.437,0.775,0.732,�k��,1.1,��
2019/04/18,05:00,0.768,1.120,0.773,1.429,1.042,0.440,0.775,0.731,�k�k��,1.9,��
2019/04/18,05:10,0.768,1.120,0.771,1.428,1.040,0.440,0.775,0.734,�k,1.5,��
2019/04/18,05:20,0.768,1.121,0.771,1.426,1.042,0.439,0.775,0.732,�k,1.5,��
2019/04/18,05:30,0.768,1.121,0.772,1.427,1.045,0.438,0.776,0.734,�k,1.4,��
2019/04/18,05:40,0.767,1.121,0.771,1.427,1.041,0.438,0.775,0.732,�k�k��,1.7,��
2019/04/18,05:50,0.769,1.121,0.770,1.429,1.041,0.439,0.774,0.733,�k�k��,2.5,��
2019/04/18,06:00,0.767,1.123,0.770,1.426,1.041,0.439,0.775,0.732,�k�k��,2.6,�L
2019/04/18,06:10,0.766,1.122,0.773,1.424,1.043,0.438,0.776,0.731,�k�k��,2.3,��
2019/04/18,06:20,0.770,1.122,0.772,1.425,1.045,0.438,0.775,0.733,�k�k��,3.0,��
2019/04/18,06:30,0.766,1.122,0.771,1.426,1.043,0.439,0.774,0.734,�k�k��,2.5,��
2019/04/18,06:40,0.768,1.120,0.773,1.427,1.044,0.438,0.775,0.732,�k�k��,2.0,��
2019/04/18,06:50,0.768,1.125,0.772,1.427,1.042,0.439,0.775,0.732,�k��,1.5,��
2019/04/18,07:00,0.770,1.122,0.774,1.426,1.042,0.439,0.776,0.734,�k��,1.5,��
2019/04/18,07:10,0.770,1.123,0.773,1.427,1.041,0.439,0.776,0.733,�k��,0.9,��
2019/04/18,07:20,0.769,1.121,0.774,1.425,1.043,0.439,0.776,0.732,�k�k��,1.4,��
2019/04/18,07:30,0.769,1.123,0.773,1.428,1.043,0.439,0.775,0.735,�k,1.7,��
2019/04/18,07:40,0.771,1.121,0.772,1.427,1.046,0.439,0.775,0.734,�k�k��,1.9,��
2019/04/18,07:50,0.769,1.118,0.773,1.426,1.045,0.438,0.775,0.733,�k�k��,1.2,��
2019/04/18,08:00,0.766,1.117,0.773,1.426,1.042,0.437,0.774,0.734,-,CALM,��
2019/04/18,08:10,0.770,1.119,0.772,1.428,1.044,0.438,0.772,0.733,���k��,1.4,��
2019/04/18,08:20,0.768,1.118,0.772,1.428,1.042,0.437,0.773,0.733,�k��,2.9,��
2019/04/18,08:30,0.768,1.117,0.773,1.426,1.045,0.437,0.772,0.732,���k��,2.5,��
2019/04/18,08:40,0.766,1.118,0.772,1.428,1.043,0.436,0.773,0.730,���k��,2.2,��
2019/04/18,08:50,0.767,1.115,0.773,1.426,1.044,0.436,0.771,0.731,���쓌,2.2,��
2019/04/18,09:00,0.768,1.114,0.771,1.425,1.043,0.434,0.771,0.729,�쓌,2.5,��
2019/04/18,09:10,0.767,1.117,0.773,1.425,1.045,0.437,0.772,0.730,�쓌,1.9,�L
2019/04/18,09:20,0.768,1.112,0.772,1.427,1.040,0.435,0.775,0.730,�쓌,2.0,�L
2019/04/18,09:30,0.766,1.115,0.773,1.427,1.040,0.438,0.772,0.729,���쓌,2.0,�L
2019/04/18,09:40,0.767,1.112,0.773,1.428,1.041,0.436,0.772,0.729,��,2.5,��
2019/04/18,09:50,0.767,1.116,0.772,1.424,1.040,0.436,0.772,0.731,��,2.0,��
2019/04/18,10:00,0.769,1.117,0.774,1.426,1.039,0.436,0.773,0.732,�k��,1.7,��
2019/04/18,10:10,0.768,1.118,0.763,1.427,1.040,0.435,0.774,0.731,���k��,3.3,��
2019/04/18,10:20,0.767,1.116,0.760,1.426,1.043,0.436,0.771,0.730,���k��,4.3,��
2019/04/18,10:30,0.770,1.116,0.755,1.427,1.044,0.436,0.773,0.732,���쓌,3.1,��
2019/04/18,10:40,0.770,1.120,0.763,1.428,1.041,0.438,0.772,0.732,���쓌,2.9,��
2019/04/18,10:50,0.768,1.118,0.773,1.425,1.041,0.439,0.773,0.731,���쓌,2.3,��
2019/04/18,11:00,0.769,1.118,0.774,1.427,1.045,0.438,0.774,0.732,��,1.9,��
2019/04/18,11:10,0.769,1.120,0.769,1.429,1.043,0.438,0.775,0.732,�쓌,2.0,��
2019/04/18,11:20,0.770,1.118,0.771,1.428,1.043,0.437,0.774,0.733,�쓌,2.6,��
2019/04/18,11:30,0.767,1.123,0.771,1.419,1.045,0.438,0.774,0.732,�쓌,2.8,��
2019/04/18,11:40,0.767,1.117,0.771,1.414,1.042,0.437,0.773,0.731,�쓌,5.1,��
2019/04/18,11:50,0.768,1.120,0.770,1.415,1.044,0.436,0.774,0.732,�쓌,4.3,��
2019/04/18,12:00,0.766,1.122,0.772,1.415,1.044,0.438,0.776,0.731,��쓌,4.3,��
2019/04/18,12:10,0.768,1.121,0.770,1.424,1.044,0.437,0.776,0.733,��쓌,5.4,��
2019/04/18,12:20,0.766,1.121,0.771,1.426,1.043,0.438,0.775,0.732,��쓌,5.3,��
2019/04/18,12:30,0.767,1.121,0.769,1.426,1.044,0.438,0.774,0.730,�쓌,4.5,��
2019/04/18,12:40,0.769,1.122,0.772,1.429,1.047,0.437,0.776,0.730,��쓌,5.1,��
2019/04/18,12:50,0.768,1.119,0.772,1.428,1.045,0.440,0.775,0.732,��쓌,4.9,��
2019/04/18,13:00,0.769,1.120,0.774,1.431,1.047,0.437,0.775,0.732,��쓌,5.5,��
2019/04/18,13:10,0.767,1.122,0.773,1.428,1.047,0.439,0.775,0.732,��쓌,5.5,��
2019/04/18,13:20,0.767,1.120,0.771,1.430,1.046,0.438,0.776,0.732,��쓌,6.4,��
2019/04/18,13:30,0.768,1.120,0.773,1.432,1.047,0.439,0.776,0.730,��쓌,5.8,��
2019/04/18,13:40,0.769,1.118,0.773,1.430,1.046,0.439,0.774,0.732,��쓌,6.5,��
2019/04/18,13:50,0.771,1.122,0.773,1.431,1.046,0.438,0.776,0.732,��쓌,8.0,��
2019/04/18,14:00,0.771,1.121,0.772,1.428,1.047,0.439,0.778,0.733,��,5.7,��
2019/04/18,14:10,0.768,1.125,0.773,1.431,1.051,0.438,0.777,0.732,��쓌,5.7,��
2019/04/18,14:20,0.769,1.121,0.775,1.432,1.047,0.440,0.776,0.732,��쓌,8.3,��
2019/04/18,14:30,0.770,1.124,0.773,1.431,1.047,0.441,0.776,0.731,��,7.5,��
2019/04/18,14:40,0.770,1.121,0.774,1.431,1.048,0.439,0.777,0.733,��,6.8,��
2019/04/18,14:50,0.771,1.124,0.776,1.432,1.048,0.439,0.778,0.733,��,5.6,��
2019/04/18,15:00,0.773,1.126,0.774,1.431,1.049,0.440,0.776,0.733,��,4.7,��
2019/04/18,15:10,0.772,1.127,0.773,1.429,1.050,0.441,0.777,0.732,��쓌,6.2,��
2019/04/18,15:20,0.771,1.124,0.775,1.431,1.049,0.441,0.778,0.733,��쓌,7.0,��
2019/04/18,15:30,0.770,1.125,0.776,1.431,1.047,0.442,0.777,0.734,��쓌,7.6,��
2019/04/18,15:40,0.771,1.126,0.774,1.429,1.048,0.440,0.777,0.732,��쓌,7.9,��
2019/04/18,15:50,0.769,1.127,0.774,1.430,1.048,0.441,0.778,0.730,��쓌,8.8,��
2019/04/18,16:00,0.771,1.127,0.774,1.432,1.049,0.440,0.776,0.731,��,8.8,��
2019/04/18,16:10,0.772,1.127,0.773,1.429,1.049,0.442,0.776,0.733,��쓌,8.5,��
2019/04/18,16:20,0.768,1.128,0.774,1.427,1.048,0.440,0.778,0.733,��쓌,11.1,��
2019/04/18,16:30,0.769,1.127,0.773,1.428,1.050,0.441,0.777,0.731,��쓌,11.3,��
2019/04/18,16:40,0.768,1.127,0.773,1.427,1.046,0.441,0.775,0.731,��,10.3,��
2019/04/18,16:50,0.769,1.130,0.775,1.430,1.049,0.442,0.775,0.733,��,8.0,��
2019/04/18,17:00,0.769,1.129,0.774,1.426,1.049,0.443,0.775,0.731,��,9.6,��
2019/04/18,17:10,0.770,1.129,0.775,1.429,1.049,0.443,0.774,0.731,��,8.9,��
2019/04/18,17:20,0.769,1.131,0.775,1.428,1.047,0.443,0.776,0.732,��,10.2,��
2019/04/18,17:30,0.769,1.129,0.772,1.428,1.050,0.441,0.776,0.732,��,10.2,��
2019/04/18,17:40,0.768,1.127,0.773,1.429,1.049,0.440,0.778,0.733,��,8.9,��
2019/04/18,17:50,0.771,1.130,0.772,1.430,1.046,0.440,0.774,0.733,��쓌,8.8,��
2019/04/18,18:00,0.770,1.129,0.772,1.430,1.048,0.441,0.776,0.735,��,11.0,��
2019/04/18,18:10,0.771,1.129,0.771,1.431,1.048,0.442,0.776,0.734,��쓌,9.1,��
2019/04/18,18:20,0.770,1.130,0.775,1.433,1.045,0.444,0.775,0.736,��,8.6,��
2019/04/18,18:30,0.775,1.130,0.775,1.431,1.047,0.442,0.775,0.735,��,9.9,��
2019/04/18,18:40,0.771,1.132,0.775,1.432,1.047,0.443,0.775,0.737,��,9.0,��
2019/04/18,18:50,0.772,1.128,0.775,1.434,1.048,0.442,0.776,0.735,��,9.8,��
2019/04/18,19:00,0.771,1.131,0.774,1.434,1.047,0.443,0.776,0.735,��,8.1,��
2019/04/18,19:10,0.773,1.130,0.776,1.430,1.045,0.442,0.778,0.737,��,8.5,��
2019/04/18,19:20,0.773,1.132,0.776,1.435,1.048,0.442,0.777,0.735,��,7.9,��
2019/04/18,19:30,0.772,1.131,0.774,1.430,1.047,0.443,0.777,0.736,��,8.4,��
2019/04/18,19:40,0.771,1.131,0.774,1.432,1.051,0.441,0.778,0.733,��,8.1,��
2019/04/18,19:50,0.771,1.128,0.777,1.432,1.051,0.442,0.779,0.735,��,7.3,��
2019/04/18,20:00,0.772,1.130,0.777,1.432,1.051,0.444,0.778,0.734,��,6.6,��
2019/04/18,20:10,0.773,1.131,0.775,1.433,1.051,0.442,0.778,0.733,��,6.6,��
2019/04/18,20:20,0.771,1.130,0.777,1.433,1.049,0.442,0.778,0.734,��,6.7,��
2019/04/18,20:30,0.770,1.129,0.774,1.434,1.052,0.443,0.778,0.734,��,7.4,��
2019/04/18,20:40,0.772,1.130,0.775,1.433,1.050,0.443,0.778,0.736,��,6.8,��
2019/04/18,20:50,0.771,1.130,0.777,1.434,1.050,0.442,0.780,0.736,��,8.4,��
2019/04/18,21:00,0.771,1.129,0.777,1.435,1.049,0.442,0.778,0.734,��쐼,8.4,��
2019/04/18,21:10,0.770,1.129,0.776,1.431,1.051,0.442,0.777,0.734,��,7.1,��
2019/04/18,21:20,0.770,1.130,0.776,1.433,1.049,0.443,0.778,0.734,��쐼,6.3,��
2019/04/18,21:30,0.771,1.130,0.777,1.431,1.052,0.442,0.777,0.734,��쐼,5.8,��
2019/04/18,21:40,0.770,1.128,0.777,1.431,1.050,0.442,0.777,0.733,��쐼,7.3,��
2019/04/18,21:50,0.772,1.128,0.775,1.433,1.050,0.442,0.776,0.733,��쐼,7.2,��
2019/04/18,22:00,0.769,1.127,0.777,1.434,1.051,0.443,0.776,0.734,��쐼,5.9,��
2019/04/18,22:10,0.771,1.128,0.774,1.434,1.048,0.443,0.777,0.733,��쐼,6.2,��
2019/04/18,22:20,0.772,1.131,0.775,1.432,1.049,0.441,0.779,0.735,��,6.9,��
2019/04/18,22:30,0.772,1.129,0.774,1.432,1.050,0.441,0.777,0.734,��,7.0,��
2019/04/18,22:40,0.770,1.129,0.775,1.433,1.050,0.444,0.778,0.734,��,7.1,��
2019/04/18,22:50,0.772,1.128,0.776,1.433,1.050,0.442,0.778,0.734,��,7.0,��
2019/04/18,23:00,0.772,1.125,0.775,1.433,1.048,0.441,0.778,0.735,��,7.6,��
2019/04/18,23:10,0.771,1.127,0.776,1.434,1.052,0.442,0.779,0.733,��,7.5,��
2019/04/18,23:20,0.771,1.127,0.775,1.430,1.050,0.443,0.778,0.735,��,8.1,��
2019/04/18,23:30,0.772,1.126,0.778,1.432,1.048,0.443,0.778,0.735,��,8.5,��
2019/04/18,23:40,0.772,1.127,0.778,1.433,1.050,0.443,0.780,0.733,��,8.0,��
2019/04/18,23:50,0.773,1.129,0.776,1.433,1.052,0.444,0.779,0.733,��,7.4,��
